Regional Weather Roundup
Issued by NWS

Home | Current Version | Previous Version | Text Only | Print | Product List | Glossary On
Versions: 1 2 3 4 5 6 7 8 9 10 11 12 13 14 15 16 17 18 19 20 21 22 23 24 25 26 27 28 29 30 31 32 33 34 35 36 37 38 39 40 41 42 43 44 45 46 47 48 49 50
000
ASUS44 KBMX 281110
RWRAL

ALABAMA REGIONAL WEATHER ROUNDUP
NATIONAL WEATHER SERVICE BIRMINGHAM AL
600 AM CDT THU AUG 28 2014

NOTE: "FAIR" INDICATES FEW OR NO CLOUDS BELOW 12,000 FEET
WITH NO SIGNIFICANT WEATHER AND/OR OBSTRUCTIONS TO VISIBILITY.

THE REMARK "TC" DENOTES TEMPERATURE IN DEGREES CELSIUS.

ALZ001>011-014-016>018-020-281200-
NORTH ALABAMA

CITY           SKY/WX    TMP DP  RH WIND       PRES   REMARKS
MUSCLE SHOALS  FOG       67  65  93 CALM      30.05S VSB 1/2
HUNTSVILLE     PTCLDY    70  67  90 CALM      30.05R
DECATUR        CLEAR     65  64  97 CALM      30.05R
HALEYVILLE     FAIR      64  64 100 CALM      30.08R
GADSDEN        MOCLDY    63  59  88 CALM      30.05R
$$

ALZ012-013-022-023-030>036-040>044-281200-
WEST CENTRAL ALABAMA

CITY           SKY/WX    TMP DP  RH WIND       PRES   REMARKS
TUSCALOOSA     CLEAR     66  63  90 N3        30.03R
$$

ALZ015-024>027-033>036-040>044-281200-
CENTRAL ALABAMA

CITY           SKY/WX    TMP DP  RH WIND       PRES   REMARKS
BIRMINGHAM     PTCLDY    67  61  81 CALM      30.06R
MONTGOMERY     MOCLDY    68  65  90 N3        30.02R
SHELBY CO ARPT CLEAR     66  63  90 CALM      30.05R
MAXWELL AFB    PTCLDY    68  68  99 N2        30.02R
GREENVILLE     FAIR      65  61  87 CALM      30.02R
$$

ALZ019-021-028-029-037-038-045>048-281200-
EAST CENTRAL ALABAMA

CITY           SKY/WX    TMP DP  RH WIND       PRES   REMARKS
ANNISTON       CLEAR     64  62  93 E3        30.06R
ALEXANDER CITY CLEAR     68  63  83 CALM      30.05R
AUBURN         CLEAR     66  57  72 CALM      30.07S
$$

ALZ051>064-281200-
SOUTHWEST ALABAMA

CITY           SKY/WX    TMP DP  RH WIND       PRES   REMARKS
MOBILE         PTCLDY    73  72  96 CALM      30.01R
BROOKLEY FIELD MOCLDY    74  73  97 NW3       30.01R
EVERGREEN      PTCLDY    65  63  93 CALM      30.02R
$$

ALZ049-050-065>069-281200-
SOUTHEAST ALABAMA

CITY           SKY/WX    TMP DP  RH WIND       PRES   REMARKS
DOTHAN         PTCLDY    63  61  93 NE3       30.05R
OZARK          PTCLDY    66  62  88 N2        30.01R
TROY           PTCLDY    64  61  90 CALM      30.03R
EUFAULA        FAIR      63  61  93 CALM      30.01S
$$


USA.gov is the U.S. government's official web portal to all federal, state and local government web resources and services.